Theta_e
311 311 312 311 311 309 305 324 314 319 323 313 311 305 306 302 303 305 303 304 301 299 299 298 298 297 300 303 302 297 302 297 291 294 300 302 300 299 299 296 292 295 292 293
311 311 311 311 310 309 320 320 315 321 319 306 306 307 303 303 302 302 301 301 302 303 300 296 299 300 304 304 302 300 301 295 290 292 297 301 297 299 299 300 300 293 289 292
311 311 311 311 310 309 317 319 310 314 314 311 309 304 301 300 304 303 303 302 303 301 299 302 299 299 302 304 304 307 305 300 295 290 293 297 295 297 299 298 292 292 293 295
311 311 310 311 309 309 321 319 312 311 306 306 306 306 302 300 299 303 305 303 301 299 297 299 299 300 301 303 305 305 304 296 297 297 297 297 296 295 295 295 295 292 295 294
311 311 311 310 310 308 321 312 311 312 308 307 306 300 303 300 300 300 301 300 301 301 299 300 296 299 300 300 304 303 305 296 298 294 297 296 292 294 294 295 296 295 294 293
311 311 311 311 310 311 317 316 317 310 304 307 304 304 302 301 302 304 303 302 301 300 303 303 304 305 305 306 303 301 300 297 295 290 295 295 289 292 293 294 296 294 291 294
311 311 311 311 310 310 314 317 315 310 303 305 304 302 302 301 302 301 303 304 302 306 308 307 307 308 307 306 305 306 300 299 296 291 294 284 294 299 298 295 296 297 297 299
311 311 311 311 311 310 312 318 313 312 304 307 304 303 302 303 304 303 304 305 308 310 306 301 300 299 302 302 303 301 303 299 293 292 289 292 294 296 295 294 293 298 297 299
311 312 312 312 311 310 312 315 317 312 307 305 307 303 304 302 303 304 306 310 311 309 304 300 294 291 294 293 295 302 301 303 296 293 286 284 294 297 303 301 290 299 300 300
311 312 312 312 312 311 311 311 333 311 306 311 310 305 305 308 305 303 306 306 305 309 301 297 295 293 298 291 293 293 296 295 292 290 286 293 299 299 303 289 292 301 301 301
311 311 312 312 312 312 311 310 322 312 307 309 312 312 307 306 306 302 308 304 306 304 299 297 297 295 297 296 299 297 295 293 292 293 290 286 303 300 294 301 303 302 302 302
310 311 311 312 312 312 311 308 317 317 309 309 315 316 317 313 312 308 310 306 306 305 299 300 300 296 298 298 292 302 293 298 295 296 295 306 306 303 305 306 304 303 303 303
310 310 311 312 312 312 310 311 312 313 307 307 310 309 315 316 317 316 305 309 312 310 314 305 301 297 300 294 296 298 301 304 298 299 302 302 304 306 306 306 305 306 306 303
310 310 311 311 311 311 309 310 314 314 308 304 308 316 312 316 317 315 316 314 317 316 309 304 302 298 305 299 300 299 302 304 300 300 303 304 303 304 306 306 306 306 305 304
310 311 311 311 311 310 310 312 314 318 310 304 305 314 313 314 316 313 314 318 315 308 305 303 301 305 304 303 303 300 304 302 300 298 305 302 303 306 308 306 305 306 304 304
310 311 311 310 310 310 311 311 318 321 319 308 301 312 312 313 315 313 313 313 313 310 306 305 306 311 308 300 297 306 306 307 309 306 309 308 307 308 308 306 306 306 306 306
310 310 309 309 310 312 309 310 314 313 321 309 304 304 311 313 313 312 311 316 310 308 308 305 306 305 307 302 297 305 306 308 309 310 309 306 306 305 307 307 307 307 307 307
309 309 309 310 309 308 311 317 315 314 313 311 303 303 307 314 308 307 313 309 310 309 308 309 306 306 306 300 304 306 307 308 308 307 308 308 308 308 307 308 307 305 305 305
308 309 310 315 314 315 313 310 312 319 313 306 306 302 300 313 309 310 308 311 303 310 305 305 307 304 300 303 305 306 307 308 307 307 307 306 306 305 306 306 306 305 305 306
309 314 313 312 314 311 314 314 312 312 312 310 304 308 302 309 305 307 306 308 303 299 304 309 304 303 309 311 311 311 310 309 309 306 304 304 304 304 305 306 307 304 306 307
313 309 309 314 316 315 312 309 306 308 305 309 308 305 303 311 303 302 306 303 303 295 300 301 298 298 306 312 312 312 312 311 308 308 307 308 308 307 308 308 307 306 304 305
307 305 307 312 316 313 305 303 304 302 300 306 304 305 307 308 311 303 305 299 300 293 304 298 295 301 303 307 308 309 310 308 308 309 308 308 307 308 309 308 309 308 307 307
314 308 310 312 308 296 298 296 299 300 305 306 307 304 306 310 309 303 299 295 295 304 298 295 294 296 300 303 304 305 309 309 308 309 309 308 307 308 308 309 310 309 308 308
309 305 292 300 301 302 302 302 302 306 305 306 306 305 303 306 303 301 295 299 300 293 290 287 289 294 298 301 302 303 304 306 306 306 308 308 308 306 307 308 310 311 309 308
306 305 292 300 305 306 307 307 306 308 309 307 305 305 304 302 300 301 297 293 290 287 286 289 294 298 299 300 301 301 302 303 304 306 305 307 307 307 309 309 310 312 310 307
305 304 301 305 305 305 305 305 305 309 308 309 306 301 299 297 297 293 288 286 286 289 291 294 299 300 301 301 302 303 303 302 305 306 306 305 306 306 308 310 311 311 310 309
306 305 309 308 307 305 305 307 307 311 306 300 302 297 295 296 290 290 292 289 291 293 296 300 302 302 302 302 302 301 302 302 303 304 305 306 308 308 308 308 310 311 312 312
Wind_Speed
24 25 24 23 22 21 3 7 7 7 7 9 3 8 6 3 6 8 5 5 8 7 11 9 11 9 11 13 13 15 13 9 13 22 21 20 17 14 11 7 11 8 10 8
26 26 25 24 19 15 7 7 3 6 8 5 6 3 7 5 7 6 6 4 5 6 8 6 11 9 8 9 14 10 10 7 12 15 16 21 19 17 18 14 9 16 13 8
25 27 27 27 24 14 4 8 5 4 3 5 8 2 1 2 4 0 4 4 4 6 9 10 6 12 8 13 8 4 2 8 14 13 20 19 20 22 23 14 10 17 17 15
26 27 29 29 30 26 4 4 5 4 6 7 4 5 2 4 1 3 1 4 2 7 6 12 10 14 13 13 7 6 2 11 15 17 21 18 15 12 15 19 4 8 14 15
26 26 28 30 33 36 3 6 6 0 4 4 8 4 1 5 2 2 1 3 7 9 9 6 11 13 11 6 11 9 9 9 14 18 21 7 10 8 8 12 14 15 14 13
26 26 27 28 29 27 7 9 3 6 4 6 6 4 3 4 4 5 4 6 8 9 10 10 11 10 9 8 7 6 5 6 9 13 17 20 5 10 12 10 10 12 9 7
25 25 26 26 25 19 7 6 8 8 10 3 5 3 2 5 4 7 7 5 6 8 10 11 12 13 12 13 10 8 6 10 6 10 12 5 1 4 3 8 4 8 7 7
24 24 25 25 25 23 8 9 7 8 9 11 4 6 5 5 4 8 9 8 5 7 10 11 11 13 14 14 15 6 5 9 9 7 5 6 4 5 3 5 6 4 5 6
24 24 23 23 23 22 10 8 6 7 8 4 8 5 6 7 11 7 13 5 4 5 9 11 13 11 4 4 5 6 6 10 8 18 6 3 3 4 7 5 1 2 8 7
23 24 23 22 21 20 9 7 4 7 9 12 2 5 6 5 5 7 9 2 4 8 9 11 11 6 7 4 10 7 10 6 12 7 3 5 6 4 6 4 4 4 3 9
21 22 23 21 20 17 10 9 5 5 7 12 14 6 6 7 6 8 4 5 5 7 8 8 4 5 4 7 11 9 13 6 9 7 7 2 7 6 4 3 1 2 8 7
21 21 21 20 18 15 10 7 6 3 6 14 16 12 11 9 9 5 3 3 4 4 4 5 6 10 9 6 4 2 3 5 3 3 5 8 7 6 3 6 5 3 7 2
23 22 21 20 18 14 7 7 9 8 9 11 14 16 13 11 8 4 6 3 4 1 4 5 7 10 8 9 8 13 11 4 5 6 8 6 8 7 6 7 6 5 8 1
25 23 22 20 19 14 8 7 8 7 6 7 12 1 4 7 10 9 8 6 3 3 6 8 8 6 10 9 11 12 7 17 3 16 10 8 5 4 8 7 7 10 3 4
28 25 24 21 19 14 9 8 8 9 5 9 11 15 15 9 10 11 11 8 7 8 7 6 9 10 7 9 15 12 9 10 7 7 6 9 18 8 10 9 8 7 8 8
31 26 24 21 16 9 6 6 8 4 2 6 5 9 7 9 11 12 12 10 10 10 1 10 7 15 10 10 11 15 10 2 11 11 13 7 2 5 5 6 10 9 11 9
33 27 23 20 11 5 4 6 5 8 6 5 6 8 7 6 8 9 10 12 9 7 8 7 9 11 10 8 14 17 16 14 14 10 3 14 6 8 10 10 10 10 8 7
34 31 18 17 8 7 5 2 4 5 6 7 6 9 4 3 8 10 8 9 7 6 10 10 10 8 7 7 11 13 14 14 9 8 8 7 5 11 9 10 11 12 10 10
35 31 16 3 4 2 4 2 7 5 5 6 6 10 8 3 4 4 6 7 7 6 9 9 5 6 6 10 12 12 11 2 12 9 9 9 9 12 11 12 14 13 12 10
33 9 5 3 4 3 9 4 4 6 6 6 7 10 9 12 9 7 4 1 4 5 9 4 2 6 13 14 13 12 9 10 8 12 11 12 11 12 13 14 6 14 16 13
10 8 4 8 10 4 5 4 4 5 4 1 4 5 10 5 3 5 5 1 3 4 4 2 4 7 9 12 13 11 13 13 10 11 11 13 10 9 12 11 5 9 16 14
9 7 9 6 5 4 5 4 4 4 4 7 11 9 5 4 2 3 3 1 3 6 3 3 3 10 26 23 3 6 6 10 12 11 11 10 12 11 10 10 13 12 12 9
4 6 6 4 3 4 3 8 8 7 8 9 10 9 6 4 3 2 2 5 5 7 4 2 10 18 19 18 17 22 23 21 24 20 12 10 13 13 10 12 4 16 10 9
6 5 5 4 5 1 8 10 9 7 9 10 9 10 9 5 2 2 5 3 4 4 4 9 9 17 19 17 14 13 19 21 18 19 18 18 23 11 13 12 8 10 11 11
5 4 3 6 6 8 8 9 8 9 9 11 10 10 8 3 1 1 3 4 4 8 3 4 9 14 15 16 17 15 15 16 13 12 12 14 22 21 14 11 10 6 12 10
5 5 6 8 8 8 8 9 7 8 7 7 6 5 6 6 7 8 8 4 3 3 4 8 12 14 14 15 15 15 16 15 15 11 12 10 17 21 16 11 9 8 13 14
4 4 6 7 7 7 7 8 8 7 7 5 4 7 8 5 3 4 1 3 4 8 8 10 13 13 13 14 15 15 17 17 15 15 13 11 14 17 16 8 8 9 5 7
Wind_Direction
351 349 350 352 349 339 206 272 280 30 338 275 10 38 14 325 23 8 4 358 330 8 332 331 308 349 1 25 346 334 13 308 304 315 300 282 282 326 351 337 289 266 261 272
352 350 349 351 355 357 313 268 342 60 324 297 103 123 99 47 11 28 355 11 357 346 310 310 344 334 337 1 341 32 352 333 309 326 321 338 344 327 308 322 266 259 281 285
353 351 349 348 349 348 278 282 295 124 71 41 337 106 125 153 105 114 333 326 316 331 329 301 307 296 1 352 60 170 122 274 309 312 315 316 324 359 353 331 314 309 293 343
355 354 350 350 347 346 269 270 57 6 346 48 10 327 340 291 82 177 179 221 349 333 316 312 308 351 339 321 147 310 359 314 317 322 307 326 22 6 3 332 15 309 335 334
357 356 353 351 353 338 252 336 345 73 107 336 291 147 77 325 21 279 26 290 331 305 283 356 321 322 321 311 351 322 17 317 331 310 304 256 88 40 348 345 11 354 344 19
357 356 356 355 3 346 351 360 325 277 156 190 249 61 28 348 320 176 278 327 307 304 12 334 306 293 277 270 279 335 309 317 314 304 332 312 54 349 1 348 360 337 3 13
355 355 355 356 358 9 306 355 314 294 293 230 7 0 292 286 314 312 320 286 304 353 339 301 266 248 242 232 233 210 274 293 283 286 325 341 14 202 338 313 322 323 326 338
352 353 353 352 352 356 320 298 339 315 307 318 237 205 259 280 211 228 260 295 38 338 296 279 270 253 214 266 218 226 226 280 293 280 318 224 179 1 15 359 316 4 323 316
349 348 349 349 348 352 325 323 338 307 286 19 13 319 263 286 287 264 209 189 164 280 284 278 262 268 22 281 311 266 227 267 265 281 267 4 143 58 117 113 301 45 344 345
345 344 344 343 344 346 324 286 326 309 298 298 35 286 332 309 296 272 263 158 288 234 268 282 304 329 316 281 314 299 307 310 293 319 288 120 80 20 152 278 5 60 326 304
336 339 338 338 338 345 341 300 301 309 300 298 294 283 269 265 231 271 59 282 159 265 260 286 317 295 7 258 332 337 302 298 293 306 314 302 77 341 318 58 88 324 297 336
332 333 334 334 332 335 336 276 280 286 269 295 302 289 300 270 287 303 264 307 261 353 309 327 324 315 297 269 250 176 275 288 296 322 271 263 172 172 172 181 227 292 282 328
330 329 327 327 326 325 317 297 311 291 271 268 248 235 214 239 246 218 264 229 25 131 330 309 298 304 291 285 297 288 254 114 222 259 263 280 227 189 188 210 212 206 270 64
325 328 323 323 320 313 294 263 296 299 288 286 295 30 202 222 200 210 223 267 272 276 270 279 273 276 272 269 286 274 304 297 314 293 283 300 37 302 236 193 186 230 208 247
324 328 324 321 315 305 269 260 266 266 268 312 308 313 274 233 192 226 223 222 241 265 267 246 247 263 285 282 274 267 268 244 241 258 275 142 269 202 195 189 239 193 235 203
320 328 324 320 316 302 247 227 204 282 277 298 300 334 293 178 191 224 236 233 221 242 76 262 288 293 277 283 286 282 295 195 277 260 272 241 339 317 267 251 202 224 215 205
318 324 322 318 315 250 296 11 1 332 324 262 281 300 163 213 197 226 233 232 238 242 261 260 264 277 275 255 250 268 281 294 286 287 197 256 230 239 253 221 215 215 227 224
317 316 322 307 337 283 240 145 281 330 269 264 260 277 155 236 243 237 216 232 239 215 235 250 260 283 270 242 263 268 265 263 251 282 288 279 269 280 228 222 213 226 215 231
314 308 317 227 223 298 35 311 283 242 289 300 294 295 302 146 256 358 15 326 271 305 266 265 232 245 237 247 256 267 268 347 323 254 264 254 229 241 252 235 216 214 230 229
305 292 247 167 27 301 284 180 203 199 204 219 270 289 284 0 28 317 199 261 241 259 256 239 272 256 258 266 264 266 289 288 278 281 271 267 245 238 241 247 253 17 327 225
344 341 322 333 311 270 222 259 242 184 234 86 317 71 355 314 338 308 270 231 284 273 278 185 243 272 266 244 227 229 239 260 258 264 268 273 247 243 261 271 267 162 256 285
318 298 283 264 257 227 285 286 332 32 311 8 344 325 283 319 346 129 230 285 232 249 343 268 269 22 17 345 319 221 237 256 255 267 268 270 269 255 249 230 234 198 225 217
214 218 234 221 275 11 275 336 346 334 330 336 331 318 322 102 30 334 359 249 248 312 242 214 39 342 355 341 353 353 347 353 357 348 323 265 271 274 268 257 221 158 178 161
245 251 317 262 247 297 349 2 358 5 329 311 325 310 300 309 82 164 264 287 293 267 356 22 331 334 334 344 348 342 335 328 334 345 332 317 332 303 295 292 229 240 191 225
261 259 250 241 349 324 11 4 348 342 331 337 320 305 304 359 252 267 286 303 331 35 345 278 304 314 321 327 330 329 324 317 310 308 310 304 308 312 292 291 286 209 162 191
249 241 274 299 314 343 360 348 342 345 349 324 318 324 345 23 353 6 23 5 325 312 273 287 302 309 314 320 316 315 314 316 301 281 272 265 280 284 291 289 292 307 188 201
253 251 281 315 346 353 345 336 335 352 343 350 348 350 21 28 1 7 346 279 272 286 297 304 302 304 315 323 328 323 319 311 300 281 265 240 259 277 280 282 290 285 279 205